User: anonymous   Login
Location: Easthampton
(42.2676°N, 72.6690°W)
Time: 18:47:13
(UTC+00:00)
Language:

XW-2C - Orbit

View from above orbital plane
View from above orbital plane
View from above satellite
View from above satellite

Ground track
Ground track

The orbit data is extracted from the following two-line orbital elements,

1 40906U 15049H   23087.49933806  .00019999  00000-0  81949-3 0  9991
2 40906  97.4968  94.4799 0014585  85.6760  65.4409 15.24217354416093
Epoch (UTC): 28 March 2023 11:59:02
Eccentricity: 0.0014585
inclination: 97.4968°
perigee height: 483 km
apogee height: 503 km
right ascension of ascending node: 94.4799°
argument of perigee: 85.6760°
revolutions per day: 15.24217354
mean anomaly at epoch: 65.4409°
orbit number at epoch: 41609

The dashed part of the orbit path shows where the satellite is in the earth's shadow,  

DLR